Погода в Димитровграде

Болгария     42°03′01″N   25°36′27″E
темп.,
°C
ветер,
м/с
пор.,
м/с
влажн.,
%
обл.,
%
осадки,
мм/ч
давл.,
гПа
погр.,
м
19 апреля, пн
пн1900:00+9ссв1289100 0.1 101739
03:00+8ссв1193100 0.1 101618
06:00+8св2797100 0.0 1015295
09:00+8св3697100 2.8 1014363
12:00+9всв4694100 1.3 1014468
15:00+8всв4595100 1.8 1012314
18:00+8св4696100 0.1 1010336
21:00+7с3598100 0.6 1010313
20 апреля, вт
вт2000:00+7сз4796100 2.6 1010385
03:00+6сз3795100 3.1 1010386
06:00+5зсз61096100 0.3 1011442
09:00+6зсз61095100 1.3 1013480
12:00+7зсз5992100 0.4 1014546
15:00+11зсз6775100 0.4 1014938
18:00+11зсз4776100 0.0 1014707
21:00+8ююз3485100 0.0 101647
21 апреля, ср
ср2100:00+7ююз228691 0.0 101715
03:00+5юз118792 0.0 101710
06:00+5зсз118999 0.0 101810
09:00+9з11775 0.0 1019256
12:00+14ссз125963 0.0 1019974
15:00+16ююз1250100 0.0 10181741
18:00+13ю467060 0.3 1018294
21:00+9ю22834 0.3 101910
22 апреля, чт
чт2200:00+8юз11794 0.1 102010
03:00+7з22830 0.1 102110
06:00+6з11860 0.0 102110
09:00+11зсз12733 0.0 1022226
12:00+16юв235798 0.0 1021964
15:00+19юв444729 0.0 10192045
18:00+17ююв356587 0.1 1018313
21:00+12ю487882 0.2 1019118
23 апреля, пт
пт2300:00+9ю128718 0.0 101919
03:00+8юз118713 0.0 101911
06:00+7з1190100 0.0 101810
09:00+11зсз1179100 0.0 1018216
12:00+16вюв1264100 0.0 1018770
15:00+19всв1256100 0.5 1016755
18:00+14з3484100 0.4 101681
21:00+12зсз61192100 1.1 1019388